Date,TemperatureHighF,TemperatureAvgF,TemperatureLowF,DewpointHighF,DewpointAvgF,DewpointLowF,HumidityHigh,HumidityAvg,HumidityLow,PressureMaxIn,PressureMinIn,WindSpeedMaxMPH,WindSpeedAvgMPH,GustSpeedMaxMPH,PrecipitationSumIn
2013-1-1,34.0,24.6,13.1,26.9,13.6,5.9,84,63,42,29.90,29.69,13,5,13,0.00
2013-1-2,27.0,20.6,12.6,22.3,13.0,5.8,93,73,56,30.07,29.84,15,4,15,0.00
2013-1-3,29.8,22.5,12.6,26.4,16.5,7.6,93,78,61,30.07,29.81,14,4,14,0.00
2013-1-4,35.8,31.1,26.1,24.4,21.2,17.1,80,67,56,29.87,29.72,24,9,24,0.00
2013-1-5,40.6,33.1,29.8,25.6,22.7,19.2,72,66,50,30.16,29.87,13,4,13,0.00
2013-1-6,39.0,35.0,30.9,34.1,29.4,20.7,97,81,65,29.95,29.75,17,6,17,0.13
2013-1-7,41.2,29.7,25.7,32.9,21.8,16.8,91,73,42,30.25,29.95,15,4,15,0.00
2013-1-8,48.6,32.8,27.7,25.1,20.3,16.5,84,61,37,30.16,30.01,15,4,15,0.00
2013-1-9,50.7,37.9,28.0,31.2,25.5,19.0,77,62,41,30.16,29.81,24,8,24,0.00
2013-1-10,48.9,39.2,33.6,28.9,24.6,20.8,77,57,37,30.46,30.13,14,3,14,0.00
2013-1-11,45.9,41.3,34.5,41.0,33.1,21.6,96,74,47,30.28,29.78,17,6,17,0.12
2013-1-12,59.2,50.4,43.0,50.2,46.1,40.6,98,86,66,29.90,29.81,16,7,16,0.00
2013-1-13,70.5,56.4,47.5,54.7,50.9,45.8,98,83,51,29.87,29.60,26,4,26,0.00
2013-1-14,55.2,36.8,28.2,52.9,26.1,15.3,95,66,48,30.25,29.60,20,5,20,0.00
2013-1-15,28.2,26.1,25.5,18.4,17.2,15.2,73,69,59,30.19,30.16,6,2,6,0.00
2013-1-17,29.5,22.1,17.1,20.2,10.9,5.7,85,63,48,30.19,29.90,13,4,13,0.00
2013-1-18,32.2,22.0,10.6,16.3,8.4,0.7,92,59,31,30.28,29.84,23,4,23,0.00
2013-1-19,50.4,41.8,31.5,23.9,18.1,11.0,44,38,30,29.90,29.42,18,6,18,0.00
2013-1-20,49.3,32.0,18.5,33.2,15.3,3.5,89,52,31,29.93,29.33,24,9,24,0.00
2013-1-21,24.6,19.7,13.5,10.8,5.0,2.3,72,53,44,29.93,29.69,15,3,15,0.00
2013-1-22,19.9,11.4,7.5,2.7,-5.6,-15.1,61,47,30,30.01,29.72,18,7,18,0.00
2013-1-23,20.3,10.4,5.9,3.1,-7.3,-15.4,56,45,34,30.04,29.90,10,2,10,0.00
2013-1-24,22.8,11.9,7.0,10.3,-1.5,-6.6,82,55,43,30.37,29.93,13,2,13,0.00
2013-1-25,22.6,13.7,9.3,9.4,1.2,-5.1,81,58,43,30.31,29.90,8,1,8,0.00
2013-1-26,33.8,17.4,6.8,13.4,7.4,2.2,81,67,33,30.22,29.90,7,1,7,0.00
2013-1-27,40.5,25.2,17.6,19.5,12.7,7.0,84,61,29,30.40,30.19,6,0,6,0.04
2013-1-28,42.3,33.2,24.3,41.7,28.9,13.6,98,85,58,30.22,29.69,13,1,13,0.25
2013-1-29,54.3,41.8,32.4,53.8,41.3,31.9,98,98,98,29.93,29.60,16,3,16,0.42
2013-1-30,64.0,58.8,53.1,56.3,51.1,47.9,98,76,59,29.63,28.95,30,8,30,0.04
2013-1-31,55.2,31.9,22.1,53.8,18.2,2.4,98,59,32,29.54,28.92,26,5,26,0.16
2013-2-1,34.9,21.2,18.5,17.8,9.6,3.1,92,62,34,30.01,29.54,0,0,0,0.00
2013-2-2,22.6,18.8,15.8,14.5,8.1,1.1,83,64,47,30.01,29.78,0,0,0,0.00
2013-2-3,33.6,21.1,14.5,15.8,12.0,7.3,89,69,41,29.81,29.63,0,0,0,0.00
2013-2-4,28.4,20.7,16.0,12.8,6.9,0.7,78,56,33,29.81,29.66,4,0,4,0.00
2013-2-5,34.5,23.9,16.7,17.3,11.6,7.2,89,61,37,29.84,29.66,3,0,3,0.00
2013-2-6,31.1,25.0,16.9,23.6,11.4,2.6,89,58,32,30.22,29.69,5,0,5,0.00
2013-2-7,33.1,25.1,17.4,23.5,10.2,4.5,89,54,39,30.25,29.93,6,0,6,0.00
2013-2-8,34.2,28.7,18.7,33.7,24.1,16.0,98,85,54,29.93,29.60,5,0,5,0.00
2013-2-9,30.4,19.5,12.6,18.9,14.3,9.5,98,81,54,30.25,29.93,0,0,0,0.00
2013-2-10,41.4,24.0,7.7,24.5,15.7,5.6,91,73,42,30.22,29.81,7,0,7,0.04
2013-2-11,57.2,39.6,33.3,38.3,28.4,20.1,93,65,47,29.81,29.42,24,9,24,0.59
2013-2-12,38.5,33.6,31.3,32.2,25.7,19.2,98,73,51,29.84,29.54,22,6,22,0.00
2013-2-13,31.3,27.3,23.5,24.2,21.1,19.1,86,77,70,29.78,29.60,6,0,6,0.00
2013-2-14,45.5,33.8,23.9,36.3,25.9,18.9,98,76,38,29.78,29.63,15,3,15,0.08
2013-2-15,44.1,34.6,23.4,36.2,19.5,11.1,97,55,35,29.93,29.60,19,7,19,0.00
2013-2-16,36.9,25.5,20.3,17.4,13.2,7.9,75,60,33,29.93,29.78,9,2,9,0.00
2013-2-17,23.4,16.9,13.3,19.2,7.7,-0.2,93,67,45,30.01,29.72,15,5,15,0.00
2013-2-18,38.8,23.6,10.9,13.7,6.9,1.0,76,51,26,30.13,29.78,10,2,10,0.04
2013-2-19,46.8,34.2,26.1,36.3,22.5,12.0,93,63,46,29.78,29.42,22,6,22,0.09
2013-2-20,27.7,23.3,19.9,16.8,10.4,5.2,75,58,41,29.90,29.60,21,7,21,0.00
2013-2-21,23.9,19.6,13.6,16.8,10.6,3.3,88,68,51,30.25,29.87,17,6,17,0.00
2013-2-22,34.7,29.0,21.4,29.7,21.2,13.9,91,73,50,30.25,29.87,12,4,12,0.00
2013-2-23,40.6,34.4,31.8,33.2,27.1,21.9,90,75,65,29.87,29.72,15,5,15,0.03
2013-2-24,38.3,32.3,30.2,28.2,23.5,18.8,89,70,47,29.90,29.69,12,4,12,0.00
2013-2-25,38.8,33.9,27.5,27.6,25.7,21.7,84,72,52,30.10,29.90,8,2,8,0.00
2013-2-26,48.6,35.2,25.7,33.8,25.1,19.2,98,71,33,30.10,29.72,12,3,12,0.05
2013-2-27,38.7,34.2,33.1,36.6,33.5,32.4,98,97,91,29.72,29.42,7,0,7,0.65
2013-2-28,47.5,35.5,33.1,36.0,32.8,27.3,98,91,53,29.60,29.39,12,3,12,0.67
2013-3-1,35.8,31.1,26.6,33.1,25.2,18.6,98,79,61,29.78,29.60,12,1,12,0.09
2013-3-2,30.0,25.8,23.0,23.0,19.5,16.1,92,78,59,29.84,29.72,0,0,0,0.00
2013-3-3,31.3,24.6,21.6,21.6,17.1,10.2,92,74,44,29.75,29.69,0,0,0,0.00
2013-3-4,38.8,27.3,22.1,20.0,16.3,12.7,81,64,40,29.90,29.75,14,5,14,0.00
2013-3-5,38.3,29.4,24.3,23.3,20.1,16.8,89,69,45,29.93,29.84,10,1,10,0.04
2013-3-6,45.5,34.4,23.5,32.8,28.5,19.5,90,80,53,29.99,29.78,13,3,13,0.12
2013-3-7,40.3,35.1,31.3,34.7,30.5,21.2,98,84,52,30.13,29.95,10,1,10,0.00
2013-3-8,47.7,36.3,30.4,27.1,20.1,15.0,82,54,29,30.25,30.10,12,2,12,0.00
2013-3-9,58.5,37.6,25.5,32.9,24.7,18.9,98,64,25,30.28,30.07,8,1,8,0.00
2013-3-10,68.4,51.3,34.7,24.1,20.3,15.7,62,33,15,30.10,29.84,17,5,17,0.00
2013-3-11,60.1,54.3,51.6,40.9,24.0,19.5,57,31,25,29.87,29.54,18,7,18,0.00
2013-3-12,55.9,40.9,35.1,47.3,32.7,24.8,95,73,56,29.78,29.54,20,6,20,0.21
2013-3-13,43.7,33.8,23.9,32.9,22.4,11.6,84,64,38,29.81,29.66,24,5,24,0.00
2013-3-14,36.9,28.8,20.3,17.3,6.2,-2.0,77,40,22,29.90,29.78,28,7,28,0.00
2013-3-15,43.2,32.1,23.7,32.3,20.9,7.4,94,64,44,29.90,29.54,17,5,17,0.04
2013-3-16,30.9,26.5,19.8,19.2,13.3,10.4,77,57,47,29.81,29.66,13,3,13,0.00
2013-3-17,37.6,26.1,17.4,25.4,12.3,-0.3,90,59,31,30.16,29.81,10,2,10,0.00
2013-3-18,35.4,26.3,16.0,31.3,14.1,2.3,98,63,31,30.16,29.57,12,4,12,0.00
2013-3-19,39.6,33.7,25.9,34.3,25.5,14.0,98,74,40,29.69,29.54,21,4,21,0.21
2013-3-20,41.0,28.6,23.4,23.0,17.3,8.0,82,65,29,29.72,29.63,17,2,17,0.00
2013-3-21,38.7,27.5,19.9,24.4,14.8,4.5,85,62,29,29.69,29.54,14,5,14,0.00
2013-3-22,36.7,31.5,25.3,26.8,23.6,17.8,94,74,51,29.78,29.57,13,5,13,0.04
2013-3-23,44.2,33.9,28.4,26.2,20.8,14.8,88,61,38,29.90,29.72,15,5,15,0.04
2013-3-24,43.5,33.8,25.3,29.0,20.0,11.2,90,59,32,29.87,29.60,9,2,9,0.00
2013-3-25,42.8,36.0,32.0,28.1,23.1,18.8,80,60,40,29.60,29.48,14,3,14,0.00
2013-3-26,51.6,39.8,31.1,30.2,24.9,18.3,84,58,30,29.84,29.57,9,3,9,0.00
2013-3-27,53.6,37.7,31.8,34.3,28.3,21.1,98,71,34,29.93,29.78,13,4,13,0.04
2013-3-28,48.6,39.4,33.6,36.1,30.6,21.1,98,74,38,30.04,29.90,12,3,12,0.04
2013-3-29,56.7,43.5,35.4,33.5,28.0,17.2,87,59,26,30.07,29.95,14,3,14,0.00
2013-3-30,60.4,41.9,28.6,29.9,21.2,13.4,86,49,19,30.04,29.93,8,2,8,0.00
2013-3-31,62.4,45.5,34.9,44.1,27.7,17.7,94,55,21,29.93,29.48,26,6,26,0.00
2013-4-1,45.3,36.7,27.0,41.5,23.2,5.0,98,63,23,29.81,29.42,21,6,21,0.09
2013-4-2,40.3,29.5,23.4,27.8,17.2,9.6,88,61,35,29.95,29.78,17,6,17,0.00
2013-4-3,42.3,32.3,26.8,18.4,10.4,1.2,56,41,21,30.22,29.93,15,6,15,0.00
2013-4-4,62.6,39.3,24.4,17.8,13.7,7.8,71,40,16,30.19,29.75,14,4,14,0.00
2013-4-5,48.7,39.0,29.8,25.5,16.8,8.1,60,41,29,30.01,29.72,17,5,17,0.00
2013-4-6,52.7,37.4,23.0,19.3,13.5,8.4,69,40,19,30.19,29.90,11,3,11,0.00
2013-4-7,75.0,55.5,43.7,36.5,24.2,10.9,58,31,21,29.93,29.57,26,8,26,0.00
2013-4-8,59.4,46.7,41.2,45.7,32.8,27.8,96,61,32,30.01,29.63,12,3,12,0.04
2013-4-9,65.3,50.7,42.8,52.0,42.8,36.3,98,77,36,29.99,29.63,17,3,17,0.57
2013-4-10,46.8,41.8,38.7,46.2,41.3,38.1,98,98,98,29.95,29.75,7,0,7,0.50
2013-4-11,39.6,35.9,32.5,39.0,35.0,31.5,98,96,90,29.93,29.84,6,0,6,0.00
2013-4-12,54.9,41.5,34.3,50.8,37.9,32.0,98,88,54,29.84,29.42,15,4,15,0.72
2013-4-13,48.9,42.4,39.2,37.8,32.0,25.0,86,68,41,29.81,29.63,20,6,20,0.00
2013-4-14,53.8,40.9,35.8,34.8,24.5,19.5,93,54,31,30.07,29.78,12,2,12,0.00
2013-4-15,78.3,58.1,37.0,43.4,32.2,19.1,62,40,20,30.04,29.84,15,5,15,0.00
2013-4-16,66.2,57.3,44.6,59.5,48.0,29.1,98,73,53,30.10,29.84,24,6,24,0.12
2013-4-17,60.4,47.2,33.6,34.4,27.7,20.0,89,51,24,30.22,30.07,10,3,10,0.00
2013-4-18,80.2,62.4,44.8,56.4,43.4,27.1,71,51,31,30.10,29.54,30,9,30,0.00
2013-4-19,74.7,59.4,42.3,56.0,45.0,25.9,84,60,44,29.63,29.25,29,9,29,0.05
2013-4-20,45.5,38.9,32.5,33.9,21.4,11.3,87,50,30,30.25,29.60,21,7,21,0.00
2013-4-21,50.4,37.5,26.1,22.9,13.9,0.7,68,40,22,30.52,30.25,10,2,10,0.00
2013-4-22,67.8,51.1,31.6,22.3,15.5,8.3,50,27,15,30.46,30.19,15,3,15,0.00
2013-4-23,72.3,54.8,40.5,29.3,25.6,17.5,56,34,16,30.22,29.81,13,4,13,0.00
2013-4-24,70.3,54.6,39.0,55.3,39.4,28.1,94,59,37,29.87,29.45,20,7,20,0.08
2013-4-25,66.4,47.0,35.1,39.4,27.8,14.6,90,55,15,30.16,29.87,13,3,13,0.00
2013-4-26,61.2,47.5,36.7,39.0,26.7,13.4,96,53,19,30.34,30.13,10,2,10,0.00
2013-4-27,76.8,56.0,39.2,30.0,25.8,20.5,66,36,15,30.28,30.07,11,2,11,0.00
2013-4-28,80.4,62.2,49.6,48.2,30.4,19.3,82,35,12,30.10,29.90,20,3,20,0.04
2013-4-29,71.8,60.0,50.5,50.9,45.4,41.1,89,61,37,29.93,29.84,15,3,15,0.08
2013-4-30,81.0,66.0,57.4,53.7,47.5,39.5,86,56,25,30.07,29.90,15,4,15,0.00
2013-5-1,87.8,70.7,58.8,47.6,33.6,15.3,65,32,11,30.22,30.07,13,2,13,0.00
2013-5-2,81.3,67.5,55.6,30.8,25.2,15.3,31,21,12,30.28,30.10,11,3,11,0.00
2013-5-3,87.6,69.2,54.3,38.2,31.5,24.9,52,28,13,30.19,30.04,10,2,10,0.00
2013-5-4,80.4,65.7,54.3,36.4,32.0,24.7,45,30,15,30.16,30.01,9,2,9,0.00
2013-5-5,83.8,65.8,48.9,40.2,34.0,27.0,66,34,14,30.10,29.95,9,2,9,0.00
2013-5-6,80.8,64.2,52.7,37.3,29.0,21.7,49,29,14,30.04,29.87,10,2,10,0.00
2013-5-7,84.7,67.6,53.2,49.6,42.9,37.3,76,44,22,30.01,29.90,8,1,8,0.00
2013-5-8,75.4,64.3,56.7,60.3,51.3,41.2,98,65,43,29.95,29.69,8,1,8,0.04
2013-5-9,77.7,64.1,56.5,63.2,56.6,50.0,98,80,42,29.78,29.66,7,1,7,0.74
2013-5-10,80.1,63.4,53.2,63.7,56.2,48.8,98,80,43,29.78,29.48,12,2,12,0.33
2013-5-11,64.8,55.4,46.9,59.2,49.9,40.5,98,84,46,29.66,29.42,14,4,14,0.08
2013-5-12,55.9,45.5,38.5,47.1,32.8,19.3,96,65,27,29.78,29.54,26,6,26,0.05
2013-5-13,58.3,43.9,36.0,33.5,27.6,20.1,79,55,26,29.99,29.78,15,5,15,0.00
2013-5-14,71.6,50.3,33.3,37.7,28.4,16.3,97,51,14,30.04,29.84,8,1,8,0.00
2013-5-15,84.9,62.2,46.8,52.3,39.1,28.3,93,46,21,29.84,29.39,22,4,22,0.08
2013-5-16,81.1,62.7,52.2,39.0,31.9,19.5,55,35,12,29.87,29.60,17,4,17,0.00
2013-5-17,77.2,58.0,42.6,40.1,32.2,18.5,77,43,13,30.10,29.87,7,1,7,0.00
2013-5-18,79.2,61.1,43.5,43.7,36.2,31.3,81,44,21,30.16,30.01,10,1,10,0.00
2013-5-19,93.0,71.2,58.6,57.3,51.9,43.2,77,54,21,30.04,29.78,10,2,9,0.00
2013-5-20,90.3,74.6,63.9,61.9,58.2,52.7,84,60,30,29.90,29.60,10,2,10,0.00
2013-5-21,91.9,73.3,61.0,67.1,60.9,51.7,98,68,37,29.69,29.51,12,2,12,0.04
2013-5-22,92.8,74.8,59.9,68.4,63.4,57.1,98,73,32,29.57,29.39,12,2,12,0.29
2013-5-23,81.3,68.0,45.3,63.9,56.2,44.7,98,69,33,29.75,29.42,15,4,15,0.04
2013-5-24,58.3,45.0,38.8,44.8,37.6,28.9,98,79,35,30.04,29.72,14,3,14,0.34
2013-5-25,66.9,51.8,40.1,37.6,30.4,22.2,83,49,20,30.07,29.99,14,3,14,0.00
2013-5-26,70.9,56.3,43.0,36.5,27.9,18.4,74,39,14,30.07,29.95,14,4,14,0.00
2013-5-27,80.2,59.5,42.3,39.1,29.2,17.0,81,39,12,30.13,29.99,11,2,11,0.00
2013-5-28,65.3,58.8,53.1,60.9,49.3,28.7,98,74,35,30.01,29.72,6,0,6,0.53
2013-5-29,86.7,72.1,59.4,71.7,61.3,51.8,98,73,34,29.78,29.66,23,4,23,0.89
2013-5-30,98.4,80.0,64.9,65.1,56.5,39.0,91,53,14,29.90,29.78,13,3,13,0.00
2013-5-31,99.7,81.3,68.4,64.6,58.1,45.2,82,52,17,29.84,29.69,13,3,13,0.00
2013-6-1,94.3,78.0,68.5,69.7,61.6,53.6,98,63,27,29.75,29.48,15,5,15,0.41
2013-6-2,82.2,70.9,58.1,68.5,60.0,45.7,98,73,30,29.69,29.45,25,5,25,0.59
2013-6-3,72.5,60.1,51.3,50.2,39.2,26.2,78,50,19,29.90,29.69,10,4,10,0.00
2013-6-4,77.9,60.3,48.7,44.1,33.0,21.4,81,43,15,30.04,29.90,10,2,10,0.00
2013-6-5,76.3,61.1,51.6,48.2,35.8,27.4,58,41,21,30.13,29.95,12,2,12,0.00
2013-6-6,58.5,56.2,53.6,57.9,52.5,38.0,98,89,48,29.99,29.63,6,1,6,1.51
2013-6-7,66.0,59.0,55.8,61.8,57.8,55.0,98,96,81,29.66,29.54,3,0,2,0.12
2013-6-8,68.0,60.7,55.4,63.4,56.3,52.1,98,86,63,29.87,29.57,10,1,10,0.04
2013-6-9,85.5,68.0,54.7,55.0,49.6,41.0,90,57,22,30.01,29.84,7,1,7,0.00
2013-6-10,73.4,66.1,62.6,64.7,59.9,52.2,98,81,63,29.93,29.48,7,1,7,0.04
2013-6-11,68.9,64.7,58.6,64.7,61.1,53.1,98,89,70,29.63,29.39,10,2,10,0.17
2013-6-12,84.4,69.3,53.1,57.6,49.9,37.3,98,56,21,29.72,29.57,6,0,6,0.04
2013-6-13,66.7,60.5,56.3,61.0,56.7,53.4,98,88,63,29.57,29.31,12,0,12,0.08
2013-6-14,82.2,66.6,52.3,61.1,53.0,46.0,98,68,30,29.75,29.54,9,2,9,0.00
2013-6-15,84.9,68.1,52.7,55.6,43.5,27.8,84,48,13,29.90,29.75,10,3,10,0.00
2013-6-16,85.3,68.4,61.3,68.4,58.1,48.1,98,72,41,29.81,29.45,14,4,14,0.16
2013-6-17,86.4,72.4,60.8,64.0,55.1,46.4,98,59,26,29.75,29.57,13,2,13,0.00
2013-6-18,80.6,64.1,55.4,57.0,45.7,32.0,91,57,21,29.90,29.69,10,1,10,0.00
2013-6-19,78.3,63.9,51.6,50.7,36.2,22.7,79,42,15,30.07,29.90,6,1,6,0.00
2013-6-20,82.6,64.8,46.9,49.1,37.3,23.0,92,45,14,30.13,30.04,7,1,7,0.00
2013-6-21,89.8,70.6,55.0,50.4,43.6,34.4,73,42,15,30.13,30.01,8,1,8,0.00
2013-6-22,92.1,77.0,62.6,69.1,59.7,48.3,81,58,28,30.04,29.75,10,3,10,0.00
2013-6-23,97.5,82.4,70.5,68.2,61.2,47.5,90,55,20,29.84,29.72,13,4,13,0.05
2013-6-24,94.1,81.2,70.7,65.8,58.2,44.2,83,50,19,29.81,29.66,15,6,15,0.00
2013-6-25,88.7,77.2,68.0,69.7,61.5,54.3,91,60,37,29.69,29.54,15,5,15,0.21
2013-6-26,93.4,77.2,68.4,73.6,62.0,52.5,91,64,29,29.60,29.54,13,3,13,0.04
2013-6-27,83.7,73.6,65.8,70.8,64.9,59.2,94,75,49,29.57,29.39,6,1,6,0.08
2013-6-28,66.7,64.5,61.5,66.2,63.7,60.8,98,97,93,29.39,29.25,6,0,6,0.45
2013-6-29,86.7,69.0,61.5,72.1,62.0,55.0,98,82,37,29.45,29.25,5,0,4,0.76
2013-6-30,84.4,70.8,59.7,67.2,59.8,52.9,98,72,39,29.72,29.45,7,0,7,0.00
2013-7-1,68.2,64.9,60.6,64.8,62.1,60.1,98,91,78,29.84,29.66,12,1,12,0.38
2013-7-2,83.7,69.0,60.4,67.5,62.8,59.8,98,83,47,29.90,29.78,7,0,7,0.04
2013-7-3,91.9,73.9,66.2,73.9,67.8,62.0,98,84,40,30.04,29.84,8,1,8,0.76
2013-7-4,95.0,77.4,69.1,75.0,67.8,54.1,98,77,27,30.13,29.84,10,1,10,0.00
2013-7-5,91.4,78.0,71.1,76.7,68.6,59.9,93,75,38,30.04,29.93,10,1,10,0.12
2013-7-6,95.9,78.9,67.6,68.0,61.2,48.4,93,61,21,29.95,29.78,7,1,7,0.00
2013-7-7,90.7,78.0,69.6,74.6,64.3,56.1,98,66,33,29.93,29.66,15,4,15,0.08
2013-7-8,93.4,77.2,70.0,70.5,65.5,56.7,92,70,30,29.90,29.75,10,2,10,0.00
2013-7-9,90.0,77.3,70.0,70.6,66.4,57.4,95,72,37,29.90,29.69,11,1,11,0.00
2013-7-10,73.4,72.5,72.0,70.0,69.5,68.9,92,90,88,29.75,29.66,9,3,9,0.00
2013-7-11,88.5,76.9,64.9,69.4,51.9,42.7,91,45,22,29.84,29.66,7,2,7,0.00
2013-7-12,80.6,69.7,62.2,66.0,58.5,49.4,95,71,42,29.99,29.78,6,0,6,0.00
2013-7-13,90.3,74.5,63.1,68.0,62.9,57.5,97,71,34,30.07,29.95,7,0,7,0.00
2013-7-14,97.9,80.6,68.7,70.0,63.4,55.2,95,61,27,30.19,29.99,8,1,8,0.00
2013-7-15,98.8,82.9,73.4,71.0,60.6,40.6,85,53,16,30.16,29.95,6,1,6,0.00
2013-7-16,100.4,83.2,69.8,68.9,57.8,42.6,89,49,16,30.07,29.95,9,1,9,0.00
2013-7-17,101.5,84.6,72.1,72.5,65.3,50.7,84,57,21,30.07,29.81,12,3,12,0.00
2013-7-18,98.6,84.6,74.8,75.0,68.3,58.1,94,63,27,29.95,29.66,11,3,11,0.00
2013-7-19,98.6,84.0,69.3,69.0,62.3,47.5,90,54,21,29.69,29.45,25,7,25,0.13
2013-7-20,91.6,75.6,68.2,69.2,59.2,38.0,98,65,17,29.69,29.48,13,2,13,0.33
2013-7-21,85.1,72.1,63.5,59.8,52.4,43.3,79,53,27,29.81,29.66,8,1,8,0.00
2013-7-22,87.8,71.0,60.6,63.9,54.6,45.3,84,59,29,29.84,29.57,8,1,8,0.00
2013-7-23,93.7,76.0,67.5,68.2,60.5,41.6,95,65,18,29.63,29.36,13,2,13,0.04
2013-7-24,76.6,65.4,55.9,54.5,42.0,31.9,72,46,21,29.90,29.51,10,3,10,0.00
2013-7-25,84.0,65.9,51.8,51.6,42.8,27.0,92,51,14,29.99,29.87,8,2,8,0.00
2013-7-26,87.3,68.0,53.4,53.6,42.8,27.4,88,48,13,29.99,29.84,6,1,6,0.00
2013-7-27,85.5,70.4,60.6,65.9,53.8,44.7,93,59,29,29.87,29.60,12,2,12,0.04
2013-7-28,80.6,68.9,60.6,66.9,58.7,49.1,97,73,36,29.78,29.60,8,1,8,0.04
2013-7-29,77.4,65.4,57.6,54.4,49.4,35.8,88,60,24,29.93,29.75,14,3,14,0.00
2013-7-30,87.6,69.0,57.6,56.2,49.8,37.0,90,56,20,30.01,29.90,8,2,8,0.00
2013-7-31,89.4,71.2,58.3,63.7,53.1,38.2,91,60,19,29.99,29.72,7,1,7,0.00
2013-8-1,86.4,71.1,64.9,70.1,59.3,46.8,98,70,28,29.72,29.54,13,3,13,0.29
2013-8-2,81.3,68.0,60.1,67.2,56.7,41.5,98,71,30,29.72,29.60,14,2,14,0.34
2013-8-3,84.4,71.1,60.6,63.4,51.2,35.7,98,59,19,29.78,29.60,12,2,12,0.20
2013-8-4,79.2,66.9,57.7,58.3,46.7,35.0,90,53,23,29.93,29.72,14,3,14,0.00
2013-8-5,88.0,65.3,53.2,54.8,45.7,32.6,93,56,16,29.95,29.87,9,1,9,0.00
2013-8-6,90.5,70.9,56.5,56.2,46.8,30.2,86,50,12,29.90,29.78,8,1,8,0.00
2013-8-7,85.5,74.8,66.2,63.1,55.8,50.1,76,53,32,29.84,29.66,14,5,14,0.00
2013-8-8,90.1,76.4,66.9,69.0,63.0,55.5,97,67,34,29.75,29.66,11,1,11,0.04
2013-8-9,88.2,72.5,66.2,71.1,62.4,44.7,98,75,30,29.78,29.60,10,1,10,0.67
2013-8-10,81.5,69.3,58.5,61.2,45.4,31.8,88,49,20,29.93,29.69,12,2,12,0.00
2013-8-11,84.7,67.9,55.0,57.8,46.5,33.9,96,53,19,29.95,29.87,7,1,7,0.00
2013-8-12,85.1,70.9,61.9,60.2,52.4,39.7,78,55,22,29.87,29.63,8,1,8,0.00
2013-8-13,78.8,67.7,59.2,69.7,55.6,39.2,98,69,31,29.72,29.54,14,3,14,0.54
2013-8-14,76.3,63.1,56.1,46.3,39.5,17.7,69,45,21,29.95,29.69,12,3,12,0.00
2013-8-15,83.5,65.2,51.8,49.1,41.4,30.3,86,49,16,30.01,29.90,12,3,12,0.00
2013-8-16,85.3,67.6,54.1,53.5,46.2,35.5,90,53,19,30.04,29.95,7,1,7,0.00
2013-8-17,88.2,70.7,56.3,55.8,48.0,34.3,92,52,16,30.10,30.01,6,1,6,0.00
2013-8-18,92.3,71.3,59.2,55.4,48.6,31.9,82,51,14,30.10,29.90,8,1,8,0.00
2013-8-19,90.5,73.8,60.6,60.9,52.4,37.5,91,54,18,29.93,29.81,8,2,8,0.00
2013-8-20,93.0,75.0,61.2,58.6,50.5,35.5,88,51,14,29.95,29.84,12,3,12,0.00
2013-8-21,96.3,76.4,63.5,58.8,50.8,36.1,83,48,14,29.99,29.84,13,2,13,0.00
2013-8-22,89.8,75.1,66.4,65.8,57.3,46.6,79,56,29,29.87,29.66,13,3,13,0.00
2013-8-23,83.1,69.4,58.5,57.2,46.3,27.3,81,49,14,30.04,29.78,6,1,6,0.00
2013-8-24,86.4,67.4,54.1,54.1,41.4,26.8,92,50,13,30.22,30.04,7,1,7,0.00
2013-8-25,91.8,71.2,55.2,53.3,43.3,30.0,91,46,12,30.19,29.95,10,3,10,0.00
2013-8-26,81.1,70.7,65.7,68.8,63.6,53.1,97,79,51,30.01,29.72,13,3,13,0.55
2013-8-27,87.6,74.5,67.8,73.0,67.4,62.3,98,81,45,29.84,29.72,5,0,5,0.00
2013-8-28,90.0,76.3,68.7,73.0,66.2,56.7,98,75,35,29.75,29.66,7,0,7,0.04
2013-8-29,90.7,75.7,66.7,73.6,63.2,52.2,98,71,33,29.84,29.69,7,0,7,0.00
2013-8-30,92.5,76.2,64.8,66.1,60.1,50.8,98,63,27,29.78,29.54,8,2,8,0.00
2013-8-31,88.5,74.9,68.0,70.0,66.0,57.1,95,76,35,29.66,29.48,8,1,8,0.12
2013-9-1,86.7,73.7,67.5,68.5,65.0,57.7,98,77,39,29.63,29.54,7,1,7,0.00
2013-9-2,90.0,73.6,65.3,69.8,63.0,52.0,97,73,34,29.60,29.42,11,2,11,0.00
2013-9-3,70.3,64.8,60.4,55.3,51.8,44.8,79,64,42,29.72,29.54,11,3,11,0.00
2013-9-4,86.4,68.6,55.4,61.9,47.5,27.0,93,57,13,29.81,29.66,15,4,15,0.00
2013-9-5,73.2,61.6,50.4,57.4,38.6,20.0,86,48,16,30.07,29.75,10,2,10,0.05
2013-9-6,80.2,60.6,45.0,43.2,34.5,23.1,86,45,15,30.13,29.93,13,2,13,0.00
2013-9-7,66.4,60.2,54.7,59.8,49.7,40.3,93,70,47,29.93,29.66,9,2,9,0.04
2013-9-8,74.7,63.4,50.9,64.9,42.7,20.5,98,55,16,29.99,29.66,10,1,10,0.08
2013-9-9,86.4,63.1,47.1,56.7,43.8,31.5,91,56,19,30.01,29.75,10,2,10,0.00
2013-9-10,96.4,79.3,66.7,69.6,61.7,54.7,98,60,26,29.81,29.69,17,6,17,0.08
2013-9-11,98.1,83.1,74.1,71.3,62.5,46.0,85,55,18,29.93,29.63,14,5,14,0.00
2013-9-12,74.1,69.9,64.0,64.9,62.6,51.6,91,78,52,29.69,29.48,10,2,10,0.13
2013-11-10,46.2,46.2,46.2,22.6,22.6,22.6,39,39,39,29.69,29.69,5,5,6,0.05